Hourly Weather Roundup
Issued by NWS Central Illinois

Home | Current Version | Previous Version | Text Only | Print | Product List | Glossary On
Versions: 1 2 3 4 5 6 7 8 9 10 11 12 13 14 15 16 17 18 19 20 21 22 23 24 25 26 27 28 29 30 31 32 33 34 35 36 37 38 39 40 41 42 43 44 45 46 47 48 49 50
000
NZUS43 KILX 210610
HWRILX

Area Weather Roundup
National Weather Service Lincoln IL
100 AM CDT SAT OCT 21 2017

NOTE:  "FAIR" indicates few or no clouds below 12,000 feet, with
       no sigificant weather and/or obstructions to visibility.


CITY           SKY/WX    TMP DP  RH WIND       PRES   REMARKS
Bloomington    MOCLDY    60  49  66 S13       30.07S
6HR MIN TEMP:  60; 6HR MAX TEMP:  66;

Champaign      PTCLDY    61  49  64 S10       30.10F
6HR MIN TEMP:  60; 6HR MAX TEMP:  66;

Danville       MOCLDY    60  49  66 S8        30.09F
6HR MIN TEMP:  60; 6HR MAX TEMP:  65;

Decatur        CLOUDY    63  47  55 S14       30.08S
6HR MIN TEMP:  62; 6HR MAX TEMP:  66;

Effingham      CLOUDY    58  51  76 E3        30.11F
6HR MIN TEMP:  58; 6HR MAX TEMP:  67;

Flora          PTCLDY    57  52  83 S8        30.10F
6HR MIN TEMP:  55; 6HR MAX TEMP:  64;

Galesburg      CLOUDY    70  59  68 S9        30.00S
6HR MIN TEMP:  69; 6HR MAX TEMP:  72;

Jacksonville   CLOUDY    65  51  59 S15       30.03R
6HR MIN TEMP:  65; 6HR MAX TEMP:  67;

Lacon          CLOUDY    66  51  58 S14       30.02S
6HR MIN TEMP:  62; 6HR MAX TEMP:  69;

Lawrenceville  CLOUDY    56  50  80 SE7       30.13S
6HR MIN TEMP:  56; 6HR MAX TEMP:  64;

Litchfield     PTCLDY    62  51  66 S8        30.06R
6HR MIN TEMP:  62; 6HR MAX TEMP:  65;

$$


CITY           SKY/WX    TMP DP  RH WIND       PRES   REMARKS
Lincoln        CLOUDY    62  53  72 S7        30.05F
6HR MIN TEMP:  61; 6HR MAX TEMP:  64;

Macomb         CLOUDY    64  52  64 S13       30.02R
6HR MIN TEMP:  62; 6HR MAX TEMP:  65;

Mattoon        CLOUDY    59  51  75 S6        30.10S
6HR MIN TEMP:  59; 6HR MAX TEMP:  67;

Mt Carmel AP   CLOUDY    53  48  85 CALM      30.13F
6HR MIN TEMP:  52; 6HR MAX TEMP:  62;

Olney-Noble AP CLOUDY    55  52  88 SE3       30.11F
Paris AP       CLOUDY    55  50  83 S8        30.12S
6HR MIN TEMP:  53; 6HR MAX TEMP:  62;

Peoria         CLOUDY    62  52  69 S9        30.03S
6HR MIN TEMP:  62; 6HR MAX TEMP:  70;

Pontiac        CLOUDY    62  51  67 S12       30.07S
6HR MIN TEMP:  61; 6HR MAX TEMP:  67;

Rantoul        MOCLDY    58  51  78 S6        30.10S
6HR MIN TEMP:  56; 6HR MAX TEMP:  66;

Robinson       MOCLDY    51  48  89 S3        30.13F
6HR MIN TEMP:  49; 6HR MAX TEMP:  62;

Springfield    CLOUDY    64  53  67 S10       30.04F
6HR MIN TEMP:  64; 6HR MAX TEMP:  71;

Taylorville    MOCLDY    62  50  65 S10       30.06F
6HR MIN TEMP:  60; 6HR MAX TEMP:  65;

$$

...REGIONAL REPORTS...


CITY           SKY/WX    TMP DP  RH WIND       PRES   REMARKS
Chicago O`Hare CLOUDY    65  48  54 S15       30.04F
Kankakee       CLOUDY    60  49  65 S9        30.10R
Moline         CLOUDY    66  49  54 S13       29.97R
Mount Sterling PTCLDY    62  51  66 S12       30.00S
Mount Vernon   CLOUDY    61  50  67 S6        30.10F
Pittsfield     MOCLDY    65  53  64 SE10      30.01F
Quincy         MOCLDY    64  50  60 S12       29.99R
Rockford       CLOUDY    62  48  60 S10       30.02F
$$


CITY           SKY/WX    TMP DP  RH WIND       PRES   REMARKS
Burlington     MOCLDY    62  52  69 S12       29.96F
Cedar Rapids   PTCLDY    62  50  64 S14       29.91S
Des Moines     PTCLDY    62  53  72 SE14      29.82F
Kirksville     MOCLDY    64  58  80 S13       29.95S
Ottumwa        CLEAR     63  52  67 S15       29.89F
St Louis       CLOUDY    65  52  62 SE7       30.04S
$$


CITY           SKY/WX    TMP DP  RH WIND       PRES   REMARKS
Terre Haute    CLOUDY    56  48  74 SE5       30.13F
Evansville     CLOUDY    56  50  80 CALM      30.14F
Indianapolis   CLOUDY    56  48  74 S5        30.15F
Lafayette      CLOUDY    58  50  75 S3        30.12S
Madison        CLOUDY    64  46  52 S9        29.97F
Milwaukee      CLOUDY    65  48  54 S12       30.02F
$$






USA.gov is the U.S. government's official web portal to all federal, state and local government web resources and services.